Flag for China Weather past 2 weeks in Changchun, Jilin, China

Now
81 °F

Sunny.


Feels Like: 81 °F
Forecast: 60 / 83 °F
Wind: 3 mph from North

Location: Changchun Airport

Current Time: Jul 5, 2015 at 10:45:29 AM

Latest Report: Jul 5, 2015 at 10:00 AM


Visibility: 10 mi

Pressure: 29.89 "Hg

Humidity: 45%

Dew point: 57 °F

Location of ChangchunLocation

Historic Weather in Changchun — Graph

°F

Changchun temperature yesterday

Maximum temperature yesterday: 79 °F (at 11:00 AM)
Minimum temperature yesterday: 57 °F (at 2:00 AM)
Average temperature yesterday: 68 °F

Past Weeks' High & Low Weather Summary

 TemperatureHumidityPressure
High91 °F (Jun 22, 2:00 PM)94% (Jun 25, 3:00 PM)29.92 "Hg (Jun 25, 3:00 PM)
Low54 °F (Jun 30, 2:00 AM)22% (Jun 23, 4:00 PM)29.27 "Hg (Jul 1, 3:00 AM)
Average71 °F62%29.68 "Hg
* Reported Jun 20 9:00 AM — Jul 5 9:00 AM, Changchun, Weather by CustomWeather, © 2015

Note: Actual official high and low records may vary slightly from our data, if they occured in-between our weather recording intervals... More about our weather records

Advertising

Changchun weather history for previous 24 hours

 ConditionsComfort  
Time TempWeatherWind HumidityBarometerVisibility
9:00 AM
Sun, Jul 5
79 °FSunny.3 mph48%29.92 "Hg10 mi
8:00 AM75 °FSunny.1 mph54%29.92 "Hg10 mi
7:00 AM72 °FSunny.1 mph69%29.92 "Hg10 mi
6:00 AM64 °FSunny.3 mph83%29.89 "Hg10 mi
5:00 AM59 °FSunny.3 mph88%29.89 "Hg10 mi
4:00 AM55 °FClear.1 mph94%29.89 "Hg10 mi
3:00 AM57 °FClear.1 mph82%29.89 "Hg10 mi
2:00 AM57 °FClear.3 mph88%29.89 "Hg10 mi
1:00 AM57 °FClear.1 mph94%29.89 "Hg10 mi
12:00 AM61 °FPassing clouds.3 mph83%29.89 "HgN/A
11:00 PM
Sat, Jul 4
61 °FClear.1 mph83%29.89 "Hg10 mi
10:00 PM61 °FClear.1 mph83%29.89 "Hg10 mi
9:00 PM64 °FClear.3 mph73%29.86 "Hg10 mi
8:00 PM66 °FClear.1 mph68%29.86 "Hg10 mi
7:00 PM68 °FScattered clouds.3 mph69%29.83 "HgN/A
6:00 PM70 °FScattered clouds.1 mph64%29.83 "HgN/A
5:00 PM73 °FScattered clouds.3 mph53%29.80 "HgN/A
4:00 PM75 °FScattered clouds.6 mph50%29.80 "HgN/A
3:00 PM79 °FScattered clouds.1 mph42%29.83 "HgN/A
2:00 PM79 °FPassing clouds.3 mph39%29.83 "HgN/A
1:00 PM79 °FScattered clouds.6 mph48%29.86 "HgN/A
12:00 PM77 °FScattered clouds.6 mph44%29.86 "HgN/A
11:00 AM79 °FScattered clouds.3 mph45%29.86 "HgN/A
10:00 AM75 °FScattered clouds.1 mph50%29.86 "HgN/A
Weather by CustomWeather, © 2015

See weather overviewHow to use our weather pages